Zurück zum Katalog

STARLINK-34978

AktivKommunikationSSO
NORAD 65435·PAYLOAD·🇺🇸 United States

Gestartet Sep 3, 2025 von Vandenberg Space Force Base

Loading…

Nächste Überflüge (nächste 24 Stunden)

TLE

AktuellSource: CelesTrak SupGP

Epoche: Sep 15, 2026, 04:06 UTC

1 65435C 25194B   26258.17131944 -.00046935  00000+0 -14571-2 0  2583
2 65435  97.2845 107.9341 0002045  94.2683 279.5624 15.33458165    15

Verfolge STARLINK-34978 in Echtzeit mit AllMySat

Download on the App Store